EW4993 Weather Reports


time (UTC)temp
F
wind
direction
speed
knots
gust
knots
rain 1hr
in
rain 24hr
in
rain mn
in
humidity
%
barometer
mb
20260901181512 94 92 0.0 9.6 0.00 0.00 0.00 47 990.3
20260901180008 94 130 3.5 8.7 0.00 0.00 0.00 46 990.6
20260901174505 94 101 1.7 10.4 0.00 0.00 0.00 47 990.8
20260901173003 93 65 3.5 9.6 0.00 0.00 0.00 49 991.0
20260901171609 92 165 5.2 8.7 0.00 0.00 0.00 51 991.2
20260901170058 92 138 2.6 9.6 0.00 0.00 0.00 49 991.3
20260901164551 92 80 4.3 7.0 0.00 0.00 0.00 51 991.4
20260901163103 91 92 1.7 6.1 0.00 0.00 0.00 53 991.5
20260901161539 90 119 2.6 6.1 0.00 0.00 0.00 56 991.8
20260901160040 90 140 2.6 7.0 0.00 0.00 0.00 57 991.7
20260901154548 89 159 0.0 5.2 0.00 0.00 0.00 59 991.7
20260901153135 89 202 1.7 5.2 0.00 0.00 0.00 59 991.7
20260901151520 87 340 0.0 5.2 0.00 0.00 0.00 62 991.7
20260901150016 86 286 0.0 2.6 0.00 0.00 0.00 65 991.7
20260901144518 85 291 0.0 5.2 0.00 0.00 0.00 66 991.6
20260901143008 83 257 0.0 3.5 0.00 0.00 0.00 66 991.8
20260901141504 82 232 0.0 3.5 0.00 0.00 0.00 64 992.0
20260901140104 81 186 0.9 4.3 0.00 0.00 0.00 61 992.0
20260901134603 80 155 0.0 0.0 0.00 0.00 0.00 59 991.9
20260901133105 78 153 0.0 2.6 0.00 0.00 0.00 56 992.0
20260901131555 77 194 0.0 0.0 0.00 0.00 0.00 53 991.9
20260901130034 75 194 0.0 0.0 0.00 0.00 0.00 51 991.6
20260901124535 74 194 0.0 0.0 0.00 0.00 0.00 48 991.5
20260901123013 75 196 0.0 0.0 0.00 0.00 0.00 43 991.3
20260901121512 74 196 0.0 0.0 0.00 0.00 0.00 49 991.1
20260901120051 75 196 0.0 0.0 0.00 0.00 0.00 49 991.0
20260901114552 75 196 0.0 0.0 0.00 0.00 0.00 45 990.8
20260901113040 75 196 0.0 0.0 0.00 0.00 0.00 48 990.9
20260901111536 75 196 0.0 0.0 0.00 0.00 0.00 53 991.1
20260901110034 75 196 0.0 0.0 0.00 0.00 0.00 53 990.9
20260901104539 75 196 0.0 0.0 0.00 0.00 0.00 56 990.8
20260901103036 76 196 0.0 0.0 0.00 0.00 0.00 59 990.7
20260901101527 77 196 0.0 0.0 0.00 0.00 0.00 61 990.5
20260901100023 77 196 0.0 0.0 0.00 0.00 0.00 62 990.6
20260901094524 77 196 0.0 0.0 0.00 0.00 0.00 62 990.7
20260901093004 78 196 0.0 0.0 0.00 0.00 0.00 64 990.8
20260901091503 78 196 0.0 1.7 0.00 0.00 0.00 65 990.7
20260901090052 79 196 0.9 4.3 0.00 0.00 0.00 65 990.6
20260901084540 79 198 2.6 4.3 0.00 0.00 0.00 66 990.7
20260901083027 79 199 1.7 4.3 0.00 0.00 0.00 66 990.6
20260901081528 80 209 1.7 4.3 0.00 0.00 0.00 66 990.6
20260901080026 80 214 1.7 6.1 0.00 0.00 0.00 67 990.6
20260901074525 81 226 3.5 6.1 0.00 0.00 0.00 67 990.6
20260901073029 81 217 3.5 6.1 0.00 0.00 0.00 67 990.6
20260901071524 81 227 4.3 6.1 0.00 0.00 0.00 67 990.8
20260901070029 82 214 3.5 7.0 0.00 0.00 0.00 67 990.8
20260901064525 82 227 4.3 7.8 0.00 0.00 0.00 67 990.7
20260901063006 82 202 5.2 8.7 0.00 0.00 0.00 67 990.6
20260901061505 83 196 6.1 9.6 0.00 0.00 0.00 67 990.4
20260901060047 83 192 7.0 10.4 0.00 0.00 0.00 67 990.4
20260901054547 83 186 7.0 12.2 0.00 0.00 0.00 67 990.3
20260901053029 84 194 6.1 8.7 0.00 0.00 0.00 67 990.2
20260901051528 84 190 5.2 9.6 0.00 0.00 0.00 66 990.1
20260901050010 84 196 5.2 8.7 0.00 0.00 0.00 65 989.9
20260901044510 85 199 7.0 9.6 0.00 0.00 0.00 64 989.8
20260901043059 85 191 7.0 10.4 0.00 0.00 0.00 63 989.8
20260901041559 86 200 7.8 11.3 0.00 0.00 0.00 61 989.7
20260901040103 86 194 7.0 8.7 0.00 0.00 0.00 59 989.7
20260901034558 86 190 7.0 11.3 0.00 0.00 0.00 56 989.7
20260901033058 85 188 7.0 8.7 0.00 0.00 0.00 55 989.5
20260901031556 85 186 3.5 6.1 0.00 0.00 0.00 49 989.4
20260901030054 85 136 0.9 2.6 0.00 0.00 0.00 47 989.2
20260901024558 86 136 0.0 0.0 0.00 0.00 0.00 44 989.0
20260901023039 87 136 0.9 2.6 0.00 0.00 0.00 43 988.8
20260901021548 87 136 0.0 1.7 0.00 0.00 0.00 43 988.7
20260901020018 88 135 0.9 3.5 0.00 0.00 0.00 43 988.5
20260901014518 89 134 0.9 2.6 0.00 0.00 0.00 42 988.3
20260901013006 90 133 0.9 2.6 0.00 0.00 0.00 39 988.1
20260901011506 92 133 1.7 4.3 0.00 0.00 0.00 37 988.0
20260901010015 93 138 3.5 6.1 0.00 0.00 0.00 35 988.0
20260901004504 94 134 3.5 7.8 0.00 0.00 0.00 34 988.0
20260901003003 95 142 4.3 7.8 0.00 0.00 0.00 33 988.0
20260901001503 96 126 6.1 9.6 0.00 0.00 0.00 33 987.9
20260901000001 96 134 4.3 9.6 0.00 0.00 0.00 33 987.8
20260831234501 97 98 4.3 9.6 0.00 0.00 0.00 34 987.8
20260831233043 97 136 5.2 10.4 0.00 0.00 0.00 35 987.9
20260831231548 96 144 2.6 8.7 0.00 0.00 0.00 35 987.9
20260831230028 96 140 7.0 13.0 0.00 0.00 0.00 35 987.9
20260831224525 98 141 5.2 12.2 0.00 0.00 0.00 35 988.0
20260831223015 99 130 6.1 13.0 0.00 0.00 0.00 35 988.0
20260831221511 98 209 4.3 14.8 0.00 0.00 0.00 35 988.2
20260831220047 98 119 4.3 9.6 0.00 0.00 0.00 35 988.2
20260831214546 98 183 6.1 9.6 0.00 0.00 0.00 36 988.4
20260831213040 97 202 7.8 11.3 0.00 0.00 0.00 36 988.5
20260831211532 98 197 5.2 9.6 0.00 0.00 0.00 34 988.8
20260831210029 97 178 7.8 12.2 0.00 0.00 0.00 37 988.9
20260831204530 95 222 2.6 7.8 0.00 0.00 0.00 39 989.2
20260831203026 96 142 6.1 10.4 0.00 0.00 0.00 37 989.5
20260831201534 97 195 7.8 14.8 0.00 0.00 0.00 37 989.8
20260831200022 98 137 7.0 12.2 0.00 0.00 0.00 36 989.9
20260831194519 96 264 5.2 13.0 0.00 0.00 0.00 40 990.0
20260831193100 95 202 6.1 16.5 0.00 0.00 0.00 42 990.2
20260831191602 95 155 7.8 13.0 0.00 0.00 0.00 41 990.4
20260831190042 95 160 8.7 15.6 0.00 0.00 0.00 43 990.7
20260831184543 95 190 4.3 13.9 0.00 0.00 0.00 43 990.9
20260831183020 95 163 4.3 12.2 0.00 0.00 0.00 44 991.0